TimeCET,TemperatureF,Dew PointF,Humidity,Sea Level PressureIn,VisibilityMPH,Wind Direction,Wind SpeedMPH,Gust SpeedMPH,PrecipitationIn,Events,Conditions,WindDirDegrees,DateUTC
12:00 AM,46.4,37.4,71,29.71,-9999.0,West,8.1,-,N/A,,Clear,270,2013-01-20 23:00:00
12:30 AM,48.2,35.6,62,29.68,-9999.0,West,9.2,-,N/A,,Clear,270,2013-01-20 23:30:00
1:00 AM,47,34,50,29.69,9,West,6.9,,,,Scattered Clouds,270,2013-01-21 00:00:00
1:00 AM,46.4,37.4,71,29.68,-9999.0,West,6.9,-,N/A,,Clear,270,2013-01-21 00:00:00
1:30 AM,48.2,35.6,62,29.68,-9999.0,West,6.9,-,N/A,,Clear,260,2013-01-21 00:30:00
2:00 AM,46.4,37.4,71,29.65,-9999.0,WNW,6.9,-,N/A,,Clear,290,2013-01-21 01:00:00
2:30 AM,48.2,37.4,66,29.65,-9999.0,West,5.8,-,N/A,,Clear,280,2013-01-21 01:30:00
3:00 AM,44.6,35.6,71,29.65,-9999.0,SSW,4.6,-,N/A,,Clear,200,2013-01-21 02:00:00
3:30 AM,44.6,37.4,76,29.62,-9999.0,WSW,4.6,-,N/A,,Clear,240,2013-01-21 02:30:00
4:00 AM,44.6,37.4,76,29.62,-9999.0,West,3.5,-,N/A,,Clear,260,2013-01-21 03:00:00
4:30 AM,44.6,37.4,76,29.62,-9999.0,West,4.6,-,N/A,,Clear,260,2013-01-21 03:30:00
5:00 AM,44.6,37.4,76,29.59,-9999.0,West,4.6,-,N/A,,Clear,260,2013-01-21 04:00:00
5:30 AM,42.8,37.4,81,29.59,-9999.0,Variable,1.2,-,N/A,,Clear,0,2013-01-21 04:30:00
6:00 AM,44.6,39.2,81,29.62,-9999.0,West,3.5,-,N/A,,Clear,270,2013-01-21 05:00:00
6:30 AM,50.0,41.0,71,29.62,-9999.0,WNW,10.4,-,N/A,,Clear,290,2013-01-21 05:30:00
7:00 AM,49,38,57,29.66,12,West,5.8,,,,Scattered Clouds,280,2013-01-21 06:00:00
7:30 AM,51.8,41.0,67,29.65,6.2,WNW,11.5,-,N/A,,Partly Cloudy,290,2013-01-21 06:30:00
8:00 AM,53.6,41.0,62,29.68,6.2,WNW,13.8,-,N/A,,Partly Cloudy,300,2013-01-21 07:00:00
8:30 AM,51.8,42.8,71,29.68,6.2,WNW,11.5,-,N/A,,Mostly Cloudy,290,2013-01-21 07:30:00
9:00 AM,53.6,42.8,67,29.71,6.2,WNW,6.9,-,N/A,,Mostly Cloudy,300,2013-01-21 08:00:00
9:30 AM,53.6,44.6,72,29.71,6.2,Variable,2.3,-,N/A,Rain,Light Rain,0,2013-01-21 08:30:00
10:00 AM,55.4,44.6,67,29.74,6.2,Calm,Calm,-,N/A,,Mostly Cloudy,0,2013-01-21 09:00:00
10:30 AM,53.6,44.6,72,29.77,6.2,WNW,12.7,-,N/A,,Mostly Cloudy,300,2013-01-21 09:30:00
11:00 AM,53.6,42.8,67,29.77,6.2,WNW,13.8,-,N/A,,Mostly Cloudy,300,2013-01-21 10:00:00
11:30 AM,57.2,42.8,59,29.80,6.2,WNW,15.0,-,N/A,,Mostly Cloudy,300,2013-01-21 10:30:00
12:00 PM,59.0,41.0,51,29.80,6.2,West,15.0,-,N/A,,Scattered Clouds,280,2013-01-21 11:00:00
1:00 PM,58,34,28,29.81,25,West,19.6,,,,Partly Cloudy,280,2013-01-21 12:00:00
1:00 PM,59.0,35.6,42,29.80,6.2,West,18.4,-,N/A,,Scattered Clouds,280,2013-01-21 12:00:00
1:30 PM,59.0,35.6,42,29.80,6.2,WNW,18.4,29.9,N/A,,Scattered Clouds,290,2013-01-21 12:30:00
2:00 PM,60.8,35.6,39,29.80,6.2,WNW,15.0,26.5,N/A,,Scattered Clouds,300,2013-01-21 13:00:00
2:30 PM,59.0,32.0,36,29.80,6.2,NW,16.1,-,N/A,,Scattered Clouds,310,2013-01-21 13:30:00
3:00 PM,60.8,32.0,34,29.80,6.2,NW,15.0,-,N/A,,Scattered Clouds,310,2013-01-21 14:00:00
3:30 PM,60.8,30.2,31,29.80,6.2,WNW,15.0,-,N/A,,Scattered Clouds,300,2013-01-21 14:30:00
4:00 PM,60.8,28.4,29,29.83,6.2,WNW,20.7,-,N/A,,Scattered Clouds,300,2013-01-21 15:00:00
4:30 PM,60.8,28.4,29,29.83,6.2,WNW,23.0,-,N/A,,Scattered Clouds,300,2013-01-21 15:30:00
5:00 PM,60.8,30.2,31,29.83,6.2,WNW,18.4,-,N/A,,Scattered Clouds,300,2013-01-21 16:00:00
5:30 PM,59.0,30.2,34,29.86,6.2,WNW,13.8,-,N/A,,Scattered Clouds,300,2013-01-21 16:30:00
6:00 PM,57.2,28.4,33,29.86,6.2,WNW,21.9,-,N/A,,Partly Cloudy,300,2013-01-21 17:00:00
6:30 PM,55.4,28.4,36,29.89,6.2,WNW,12.7,-,N/A,,Partly Cloudy,290,2013-01-21 17:30:00
7:00 PM,54,26,21,29.91,19,West,15.0,,,,Scattered Clouds,280,2013-01-21 18:00:00
7:00 PM,53.6,28.4,38,29.89,6.2,West,13.8,-,N/A,,Partly Cloudy,280,2013-01-21 18:00:00
7:30 PM,53.6,28.4,38,29.89,6.2,WNW,11.5,-,N/A,,Partly Cloudy,290,2013-01-21 18:30:00
8:00 PM,51.8,30.2,44,29.89,6.2,WNW,8.1,-,N/A,,Partly Cloudy,290,2013-01-21 19:00:00
8:30 PM,51.8,30.2,44,29.92,6.2,WNW,11.5,-,N/A,,Partly Cloudy,290,2013-01-21 19:30:00
9:00 PM,50.0,30.2,47,29.92,6.2,WSW,8.1,-,N/A,,Partly Cloudy,250,2013-01-21 20:00:00
9:30 PM,48.2,30.2,50,29.95,6.2,West,6.9,-,N/A,,Partly Cloudy,270,2013-01-21 20:30:00
10:00 PM,46.4,30.2,53,29.95,6.2,Variable,2.3,-,N/A,,Partly Cloudy,0,2013-01-21 21:00:00
10:30 PM,48.2,28.4,46,29.95,6.2,Variable,2.3,-,N/A,,Partly Cloudy,0,2013-01-21 21:30:00
11:00 PM,46.4,28.4,50,29.95,6.2,WNW,8.1,-,N/A,,Partly Cloudy,300,2013-01-21 22:00:00
11:30 PM,46.4,28.4,50,29.95,6.2,NNW,10.4,-,N/A,,Partly Cloudy,330,2013-01-21 22:30:00